(°C)
10°
10°
(°C)
დას.
დსდ
დსდ
დას.
დსდ
დსდ
დსდ
(კმ/სთ)
7-12
7-15
10-20
13-21
15-24
16-27
18-32
(მმ)
0
0
0
0
0
0
0
(%)
0
0
0
0
0
0
0

მზის სიმაღლე

/ 2.1°
sun-icon
UV 1
06:50
17:26
მზარდი მთვარე (155°)
17:06
03:52

METAR 51.82°ჩრ. 39.23°აღმ. (UUOO)-თვის

დრო პირობები ტემპერატურა/
ნამი
ქარი ხილვადობა ამინდი ღრუბლები წნევა ცვლილება დაუმუშავებელი
VFR 3°C / 3°C 300º 4kt >10km - Clouds and Visibility OK 1014 No Significant change. Runway 30: Clear and dry, 51-100% contamination with 1mm, friction coefficient 0.70. UUOO 180400Z 30002MPS CAVOK 03/03 Q1014 R30/090170 NOSIG RMK QFE747
VFR 2°C / 1°C 270º 4kt >10km - Broken Clouds 4800ft 1014 Temporary: Visibility 0400. Fog . RMK QFE747 . Runway 30: Clear and dry, 51-100% contamination with 1mm, friction coefficient 0.70. UUOO 180330Z 27002MPS 9999 BKN048 02/01 Q1014 R30/090170 TEMPO 0400 FG RMK QFE747
VFR 1°C / 1°C 280º 6kt >10km - Broken Clouds 4800ft 1014 Temporary: Visibility 0400. Fog . RMK QFE747 . Runway 30: Clear and dry, 51-100% contamination with 1mm, friction coefficient 0.70. UUOO 180300Z 28003MPS 9999 BKN048 01/01 Q1014 R30/090170 TEMPO 0400 FG RMK QFE747
IFR -1°C / -1°C 290º 4kt 3800m Mist Vertical Visibility of 0ft. 1014 Temporary: Visibility 0400. freezing Fog . RMK QFE747 . Runway 30: Clear and dry, 51-100% contamination with 1mm, friction coefficient 0.70. UUOO 180230Z 29002MPS 3800 BR BKN049 M01/M01 Q1014 R30/090170 TEMPO 0400 FZFG RMK QFE747
IFR -1°C / -1°C 270º 4kt 2000m freezing Fog Vertical Visibility of 0ft. 1014 Temporary: Visibility 0400. freezing Fog . RMK QFE747 . Runway 30: Clear and dry, 51-100% contamination with 1mm, friction coefficient 0.70. UUOO 180200Z 27002MPS 2000 0900NW FZFG NSC M01/M01 Q1014 R30/090170 TEMPO 0400 FZFG RMK QFE747
MVFR -1°C / -1°C 250º 4kt 5000m Mist Vertical Visibility of 0ft. 1014 Temporary: Visibility 0400. freezing Fog . RMK QFE747 . Runway 30: Clear and dry, 51-100% contamination with 1mm, friction coefficient 0.70. UUOO 180130Z 25002MPS 5000 1700NW BR NSC M01/M01 Q1014 R30/090170 TEMPO 0400 FZFG RMK QFE747
VFR 0°C / -1°C 260º 6kt 9000m Mist Vertical Visibility of 0ft. 1014 Temporary: Visibility 0400. freezing Fog . RMK QFE747 . Runway 30: Clear and dry, 51-100% contamination with 1mm, friction coefficient 0.70. UUOO 180100Z 26003MPS 9000 1300NW BR NSC M00/M01 Q1014 R30/090170 TEMPO 0400 FZFG RMK QFE747
MVFR 1°C / 0°C 260º 6kt 7000m Mist Vertical Visibility of 0ft. 1014 Temporary: Visibility 0400. Fog . RMK QFE747 . Runway 30: Clear and dry, 51-100% contamination with 1mm, friction coefficient 0.70. UUOO 180030Z 26003MPS 7000 1800NW BR NSC 01/00 Q1014 R30/090170 TEMPO 0400 FG RMK QFE747
VFR 2°C / 1°C 280º 6kt >10km - Clouds and Visibility OK 1014 No Significant change. Runway 30: Clear and dry, 51-100% contamination with 1mm, friction coefficient 0.70. UUOO 180000Z 28003MPS CAVOK 02/01 Q1014 R30/090170 NOSIG RMK QFE747
VFR 2°C / 1°C 270º 6kt >10km - Clouds and Visibility OK 1014 No Significant change. Runway 30: Clear and dry, 51-100% contamination with 1mm, friction coefficient 0.70. UUOO 172330Z 27003MPS CAVOK 02/01 Q1014 R30/090170 NOSIG RMK QFE747
VFR 2°C / 1°C 270º 4kt >10km - Clouds and Visibility OK 1015 No Significant change. Runway 30: Clear and dry, 51-100% contamination with 1mm, friction coefficient 0.70. UUOO 172300Z 27002MPS CAVOK 02/01 Q1015 R30/090170 NOSIG RMK QFE747
VFR 3°C / 2°C 280º 6kt >10km - Clouds and Visibility OK 1015 No Significant change. Runway 30: Clear and dry, 51-100% contamination with 1mm, friction coefficient 0.70. UUOO 172230Z 28003MPS CAVOK 03/02 Q1015 R30/090170 NOSIG RMK QFE747
VFR 3°C / 2°C 280º 6kt >10km - Clouds and Visibility OK 1015 No Significant change. Runway 30: Clear and dry, 51-100% contamination with 1mm, friction coefficient 0.70. UUOO 172200Z 28003MPS CAVOK 03/02 Q1015 R30/090170 NOSIG RMK QFE747
VFR 3°C / 2°C 270º 4kt >10km Mist Vertical Visibility of 0ft. 1015 No Significant change. Runway 30: Clear and dry, 51-100% contamination with 1mm, friction coefficient 0.70. UUOO 172130Z 27002MPS 9999 3300NE BR NSC 03/02 Q1015 R30/090170 NOSIG RMK QFE748
VFR 3°C / 2°C 260º 4kt >10km - Clouds and Visibility OK 1015 No Significant change. Runway 30: Clear and dry, 51-100% contamination with 1mm, friction coefficient 0.70. UUOO 172100Z 26002MPS CAVOK 03/02 Q1015 R30/090170 NOSIG RMK QFE748
VFR 4°C / 3°C 290º 4kt >10km - Clouds and Visibility OK 1015 No Significant change. Runway 30: Clear and dry, 51-100% contamination with 1mm, friction coefficient 0.70. UUOO 172030Z 29002MPS CAVOK 04/03 Q1015 R30/090170 NOSIG RMK QFE748
VFR 5°C / 3°C 280º 4kt >10km - Clouds and Visibility OK 1015 No Significant change. Runway 30: Clear and dry, 51-100% contamination with 1mm, friction coefficient 0.70. UUOO 172000Z 28002MPS CAVOK 05/03 Q1015 R30/090170 NOSIG RMK QFE748
VFR 6°C / 3°C 280º 4kt >10km - Clouds and Visibility OK 1015 No Significant change. Runway 30: Clear and dry, 51-100% contamination with 1mm, friction coefficient 0.70. UUOO 171930Z 28002MPS CAVOK 06/03 Q1015 R30/090170 NOSIG RMK QFE748
VFR 6°C / 4°C 290º 4kt >10km - Clouds and Visibility OK 1015 No Significant change. Runway 30: Clear and dry, 51-100% contamination with 1mm, friction coefficient 0.70. UUOO 171900Z 29002MPS CAVOK 06/04 Q1015 R30/090170 NOSIG RMK QFE748
VFR 6°C / 4°C 300º 6kt >10km - Clouds and Visibility OK 1015 No Significant change. Runway 30: Clear and dry, 51-100% contamination with 1mm, friction coefficient 0.70. UUOO 171830Z 30003MPS CAVOK 06/04 Q1015 R30/090170 NOSIG RMK QFE748
VFR 6°C / 3°C 300º 2kt >10km - Clouds and Visibility OK 1015 No Significant change. Runway 30: Clear and dry, 51-100% contamination with 1mm, friction coefficient 0.70. UUOO 171800Z 30001MPS CAVOK 06/03 Q1015 R30/090170 NOSIG RMK QFE748
VFR 7°C / 4°C 300º 4kt >10km - Clouds and Visibility OK 1015 No Significant change. Runway 30: Clear and dry, 51-100% contamination with 1mm, friction coefficient 0.70. UUOO 171730Z 30002MPS CAVOK 07/04 Q1015 R30/090170 NOSIG RMK QFE748
VFR 9°C / 4°C 310º 4kt >10km - Clouds and Visibility OK 1015 No Significant change. Runway 30: Clear and dry, 51-100% contamination with 1mm, friction coefficient 0.70. UUOO 171700Z 31002MPS CAVOK 09/04 Q1015 R30/090170 NOSIG RMK QFE748
VFR 10°C / 5°C 320º 6kt >10km - Broken Clouds 4400ft 1015 No Significant change. Runway 30: Clear and dry, 51-100% contamination with 1mm, friction coefficient 0.70. UUOO 171630Z 32003MPS 9999 BKN044 10/05 Q1015 R30/090170 NOSIG RMK QFE748

VFR

3°C / 3°C

[მეტი]
ქარი 300º 4kt
ხილვადობა >10km
ამინდი -
ღრუბლები Clouds and Visibility OK
წნევა 1014
ცვლილება No Significant change. Runway 30: Clear and dry, 51-100% contamination with 1mm, friction coefficient 0.70.
დაუმუშავებელი UUOO 180400Z 30002MPS CAVOK 03/03 Q1014 R30/090170 NOSIG RMK QFE747

VFR

2°C / 1°C

[მეტი]
ქარი 270º 4kt
ხილვადობა >10km
ამინდი -
ღრუბლები Broken Clouds 4800ft
წნევა 1014
ცვლილება Temporary: Visibility 0400. Fog . RMK QFE747 . Runway 30: Clear and dry, 51-100% contamination with 1mm, friction coefficient 0.70.
დაუმუშავებელი UUOO 180330Z 27002MPS 9999 BKN048 02/01 Q1014 R30/090170 TEMPO 0400 FG RMK QFE747

VFR

1°C / 1°C

[მეტი]
ქარი 280º 6kt
ხილვადობა >10km
ამინდი -
ღრუბლები Broken Clouds 4800ft
წნევა 1014
ცვლილება Temporary: Visibility 0400. Fog . RMK QFE747 . Runway 30: Clear and dry, 51-100% contamination with 1mm, friction coefficient 0.70.
დაუმუშავებელი UUOO 180300Z 28003MPS 9999 BKN048 01/01 Q1014 R30/090170 TEMPO 0400 FG RMK QFE747

IFR

-1°C / -1°C

[მეტი]
ქარი 290º 4kt
ხილვადობა 3800m
ამინდი Mist
ღრუბლები Vertical Visibility of 0ft.
წნევა 1014
ცვლილება Temporary: Visibility 0400. freezing Fog . RMK QFE747 . Runway 30: Clear and dry, 51-100% contamination with 1mm, friction coefficient 0.70.
დაუმუშავებელი UUOO 180230Z 29002MPS 3800 BR BKN049 M01/M01 Q1014 R30/090170 TEMPO 0400 FZFG RMK QFE747

IFR

-1°C / -1°C

[მეტი]
ქარი 270º 4kt
ხილვადობა 2000m
ამინდი freezing Fog
ღრუბლები Vertical Visibility of 0ft.
წნევა 1014
ცვლილება Temporary: Visibility 0400. freezing Fog . RMK QFE747 . Runway 30: Clear and dry, 51-100% contamination with 1mm, friction coefficient 0.70.
დაუმუშავებელი UUOO 180200Z 27002MPS 2000 0900NW FZFG NSC M01/M01 Q1014 R30/090170 TEMPO 0400 FZFG RMK QFE747

MVFR

-1°C / -1°C

[მეტი]
ქარი 250º 4kt
ხილვადობა 5000m
ამინდი Mist
ღრუბლები Vertical Visibility of 0ft.
წნევა 1014
ცვლილება Temporary: Visibility 0400. freezing Fog . RMK QFE747 . Runway 30: Clear and dry, 51-100% contamination with 1mm, friction coefficient 0.70.
დაუმუშავებელი UUOO 180130Z 25002MPS 5000 1700NW BR NSC M01/M01 Q1014 R30/090170 TEMPO 0400 FZFG RMK QFE747

VFR

0°C / -1°C

[მეტი]
ქარი 260º 6kt
ხილვადობა 9000m
ამინდი Mist
ღრუბლები Vertical Visibility of 0ft.
წნევა 1014
ცვლილება Temporary: Visibility 0400. freezing Fog . RMK QFE747 . Runway 30: Clear and dry, 51-100% contamination with 1mm, friction coefficient 0.70.
დაუმუშავებელი UUOO 180100Z 26003MPS 9000 1300NW BR NSC M00/M01 Q1014 R30/090170 TEMPO 0400 FZFG RMK QFE747

MVFR

1°C / 0°C

[მეტი]
ქარი 260º 6kt
ხილვადობა 7000m
ამინდი Mist
ღრუბლები Vertical Visibility of 0ft.
წნევა 1014
ცვლილება Temporary: Visibility 0400. Fog . RMK QFE747 . Runway 30: Clear and dry, 51-100% contamination with 1mm, friction coefficient 0.70.
დაუმუშავებელი UUOO 180030Z 26003MPS 7000 1800NW BR NSC 01/00 Q1014 R30/090170 TEMPO 0400 FG RMK QFE747

VFR

2°C / 1°C

[მეტი]
ქარი 280º 6kt
ხილვადობა >10km
ამინდი -
ღრუბლები Clouds and Visibility OK
წნევა 1014
ცვლილება No Significant change. Runway 30: Clear and dry, 51-100% contamination with 1mm, friction coefficient 0.70.
დაუმუშავებელი UUOO 180000Z 28003MPS CAVOK 02/01 Q1014 R30/090170 NOSIG RMK QFE747

VFR

2°C / 1°C

[მეტი]
ქარი 270º 6kt
ხილვადობა >10km
ამინდი -
ღრუბლები Clouds and Visibility OK
წნევა 1014
ცვლილება No Significant change. Runway 30: Clear and dry, 51-100% contamination with 1mm, friction coefficient 0.70.
დაუმუშავებელი UUOO 172330Z 27003MPS CAVOK 02/01 Q1014 R30/090170 NOSIG RMK QFE747

VFR

2°C / 1°C

[მეტი]
ქარი 270º 4kt
ხილვადობა >10km
ამინდი -
ღრუბლები Clouds and Visibility OK
წნევა 1015
ცვლილება No Significant change. Runway 30: Clear and dry, 51-100% contamination with 1mm, friction coefficient 0.70.
დაუმუშავებელი UUOO 172300Z 27002MPS CAVOK 02/01 Q1015 R30/090170 NOSIG RMK QFE747

VFR

3°C / 2°C

[მეტი]
ქარი 280º 6kt
ხილვადობა >10km
ამინდი -
ღრუბლები Clouds and Visibility OK
წნევა 1015
ცვლილება No Significant change. Runway 30: Clear and dry, 51-100% contamination with 1mm, friction coefficient 0.70.
დაუმუშავებელი UUOO 172230Z 28003MPS CAVOK 03/02 Q1015 R30/090170 NOSIG RMK QFE747

VFR

3°C / 2°C

[მეტი]
ქარი 280º 6kt
ხილვადობა >10km
ამინდი -
ღრუბლები Clouds and Visibility OK
წნევა 1015
ცვლილება No Significant change. Runway 30: Clear and dry, 51-100% contamination with 1mm, friction coefficient 0.70.
დაუმუშავებელი UUOO 172200Z 28003MPS CAVOK 03/02 Q1015 R30/090170 NOSIG RMK QFE747

VFR

3°C / 2°C

[მეტი]
ქარი 270º 4kt
ხილვადობა >10km
ამინდი Mist
ღრუბლები Vertical Visibility of 0ft.
წნევა 1015
ცვლილება No Significant change. Runway 30: Clear and dry, 51-100% contamination with 1mm, friction coefficient 0.70.
დაუმუშავებელი UUOO 172130Z 27002MPS 9999 3300NE BR NSC 03/02 Q1015 R30/090170 NOSIG RMK QFE748

VFR

3°C / 2°C

[მეტი]
ქარი 260º 4kt
ხილვადობა >10km
ამინდი -
ღრუბლები Clouds and Visibility OK
წნევა 1015
ცვლილება No Significant change. Runway 30: Clear and dry, 51-100% contamination with 1mm, friction coefficient 0.70.
დაუმუშავებელი UUOO 172100Z 26002MPS CAVOK 03/02 Q1015 R30/090170 NOSIG RMK QFE748

VFR

4°C / 3°C

[მეტი]
ქარი 290º 4kt
ხილვადობა >10km
ამინდი -
ღრუბლები Clouds and Visibility OK
წნევა 1015
ცვლილება No Significant change. Runway 30: Clear and dry, 51-100% contamination with 1mm, friction coefficient 0.70.
დაუმუშავებელი UUOO 172030Z 29002MPS CAVOK 04/03 Q1015 R30/090170 NOSIG RMK QFE748

VFR

5°C / 3°C

[მეტი]
ქარი 280º 4kt
ხილვადობა >10km
ამინდი -
ღრუბლები Clouds and Visibility OK
წნევა 1015
ცვლილება No Significant change. Runway 30: Clear and dry, 51-100% contamination with 1mm, friction coefficient 0.70.
დაუმუშავებელი UUOO 172000Z 28002MPS CAVOK 05/03 Q1015 R30/090170 NOSIG RMK QFE748

VFR

6°C / 3°C

[მეტი]
ქარი 280º 4kt
ხილვადობა >10km
ამინდი -
ღრუბლები Clouds and Visibility OK
წნევა 1015
ცვლილება No Significant change. Runway 30: Clear and dry, 51-100% contamination with 1mm, friction coefficient 0.70.
დაუმუშავებელი UUOO 171930Z 28002MPS CAVOK 06/03 Q1015 R30/090170 NOSIG RMK QFE748

VFR

6°C / 4°C

[მეტი]
ქარი 290º 4kt
ხილვადობა >10km
ამინდი -
ღრუბლები Clouds and Visibility OK
წნევა 1015
ცვლილება No Significant change. Runway 30: Clear and dry, 51-100% contamination with 1mm, friction coefficient 0.70.
დაუმუშავებელი UUOO 171900Z 29002MPS CAVOK 06/04 Q1015 R30/090170 NOSIG RMK QFE748

VFR

6°C / 4°C

[მეტი]
ქარი 300º 6kt
ხილვადობა >10km
ამინდი -
ღრუბლები Clouds and Visibility OK
წნევა 1015
ცვლილება No Significant change. Runway 30: Clear and dry, 51-100% contamination with 1mm, friction coefficient 0.70.
დაუმუშავებელი UUOO 171830Z 30003MPS CAVOK 06/04 Q1015 R30/090170 NOSIG RMK QFE748

VFR

6°C / 3°C

[მეტი]
ქარი 300º 2kt
ხილვადობა >10km
ამინდი -
ღრუბლები Clouds and Visibility OK
წნევა 1015
ცვლილება No Significant change. Runway 30: Clear and dry, 51-100% contamination with 1mm, friction coefficient 0.70.
დაუმუშავებელი UUOO 171800Z 30001MPS CAVOK 06/03 Q1015 R30/090170 NOSIG RMK QFE748

VFR

7°C / 4°C

[მეტი]
ქარი 300º 4kt
ხილვადობა >10km
ამინდი -
ღრუბლები Clouds and Visibility OK
წნევა 1015
ცვლილება No Significant change. Runway 30: Clear and dry, 51-100% contamination with 1mm, friction coefficient 0.70.
დაუმუშავებელი UUOO 171730Z 30002MPS CAVOK 07/04 Q1015 R30/090170 NOSIG RMK QFE748

VFR

9°C / 4°C

[მეტი]
ქარი 310º 4kt
ხილვადობა >10km
ამინდი -
ღრუბლები Clouds and Visibility OK
წნევა 1015
ცვლილება No Significant change. Runway 30: Clear and dry, 51-100% contamination with 1mm, friction coefficient 0.70.
დაუმუშავებელი UUOO 171700Z 31002MPS CAVOK 09/04 Q1015 R30/090170 NOSIG RMK QFE748

VFR

10°C / 5°C

[მეტი]
ქარი 320º 6kt
ხილვადობა >10km
ამინდი -
ღრუბლები Broken Clouds 4400ft
წნევა 1015
ცვლილება No Significant change. Runway 30: Clear and dry, 51-100% contamination with 1mm, friction coefficient 0.70.
დაუმუშავებელი UUOO 171630Z 32003MPS 9999 BKN044 10/05 Q1015 R30/090170 NOSIG RMK QFE748

TAF 51.82°ჩრ. 39.23°აღმ. (UUOO)-თვის

From till


From till Wind 250º 6kt. Visibility 6000m. Scattered Clouds 1600ft.
Temporarly from till Visibility 402.335m. freezing Fog . Obscured Sky.

დაუმუშავებელი: TAF UUOO 180159Z 1803/1812 25003MPS 6000 SCT016 TEMPO 1803/1806 0400 FZFG VV001

მიმდინარე სატელიტისა და წვიმის სურათები 51.82°ჩრ. 39.23°აღმ.-თვის

ლოკაციის მარკერი დაყენებყლია 51.82°ჩრ. 39.23°აღმ.ზე. [მეტი]

რეალურ დროში სატელიტური სურათი აერთიანებს ხილულ სინათლეს დღისით ღამის განმავლობაში ინფრაწითელ გამოსხივებასთან ერთად. ღამით, სურათი არ არის მუქი, რადგან ინფრაწითელ გამოსხივებას შეუძლია ტემპერატურის განსხვავებების დადგენა. სამწუხაროდ, დაბალი ღრუბლები და ნისლი ძნელია განასხვავონ მიწის ტემპერატურისგან და, შესაბამისად, ისინი შეიძლება თითქმის არ ჩანდეს ღამით. Meteosat სატელიტური გამოსახულება ევროპისთვის ახლდება რეალურ დროში ყოველ 5 წუთში. GOES-16/GOES-17 (ჩრდილოეთი და სამხრეთ ამერიკა) და ჰიმავარი (აზია) გამოსახულებები ახლდება ყოველ 10 წუთში.

საავტორო უფლებები 2021 EUMETSAT / meteoblue. / საავტორო უფლებები 2021 meteoblue

რადარის და ნალექების მაჩვენებელი 51.82°ჩრ. 39.23°აღმ. -თვის

გაწურეთ
Მსუბუქი
ზომიერი
Მძიმე
Ძალიან მძიმე
სეტყვა

მდებარეობის მარკერი მოთავსებულია 51.82°ჩრ. 39.23°აღმ. -ზე. ეს ანიმაცია აჩვენებს ნალექების სარადარო მონაცემებს როგორც ბოლო საათის განმავლობაში, ასევე 1h პროგნოზს. წვიმა ან თოვლის მსუბუქი ვარდნა შეიძლება უჩინარი იყოს რადარისთვის. ნალექების ინტენსივობა არის კოდირებული ფერით, დაწყებული ღია ლურჯიდან ნარინჯისფერამდე.